Year,Month,Day,Hour,Minute,Value (Times are PST for barometer in hPa)
2016,03,05,00,00,996.48
2016,03,05,00,01,996.51
2016,03,05,00,02,996.48
2016,03,05,00,03,996.48
2016,03,05,00,04,996.48
2016,03,05,00,05,996.47
2016,03,05,00,06,996.41
2016,03,05,00,07,996.40
2016,03,05,00,08,996.34
2016,03,05,00,09,996.34
2016,03,05,00,10,996.31
2016,03,05,00,11,996.34
2016,03,05,00,12,996.41
2016,03,05,00,13,996.38
2016,03,05,00,14,996.37
2016,03,05,00,15,996.30
2016,03,05,00,16,996.21
2016,03,05,00,17,996.17
2016,03,05,00,18,996.17
2016,03,05,00,19,996.11
2016,03,05,00,20,996.07
2016,03,05,00,21,996.10
2016,03,05,00,22,996.04
2016,03,05,00,23,996.01
2016,03,05,00,24,996.03
2016,03,05,00,25,995.94
2016,03,05,00,26,995.93
2016,03,05,00,27,995.84
2016,03,05,00,28,995.84
2016,03,05,00,29,995.84
2016,03,05,00,30,995.80
2016,03,05,00,31,995.80
2016,03,05,00,32,995.73
2016,03,05,00,33,995.76
2016,03,05,00,34,995.67
2016,03,05,00,35,995.68
2016,03,05,00,36,995.77
2016,03,05,00,37,995.80
2016,03,05,00,38,995.73
2016,03,05,00,39,995.72
2016,03,05,00,40,995.67
2016,03,05,00,41,995.64
2016,03,05,00,42,995.70
2016,03,05,00,43,995.72
2016,03,05,00,44,995.67
2016,03,05,00,45,995.70
2016,03,05,00,46,995.66
2016,03,05,00,47,995.60
2016,03,05,00,48,995.60
2016,03,05,00,49,995.62
2016,03,05,00,50,995.53
2016,03,05,00,51,995.57
2016,03,05,00,52,995.63
2016,03,05,00,53,995.68
2016,03,05,00,54,995.77
2016,03,05,00,55,995.70
2016,03,05,00,56,995.70
2016,03,05,00,57,995.73
2016,03,05,00,58,995.70
2016,03,05,00,59,995.67
2016,03,05,01,00,995.70
2016,03,05,01,01,995.66
2016,03,05,01,02,995.56
2016,03,05,01,03,995.56
2016,03,05,01,04,995.60
2016,03,05,01,05,995.63
2016,03,05,01,06,995.62
2016,03,05,01,07,995.56
2016,03,05,01,08,995.56
2016,03,05,01,09,995.56
2016,03,05,01,10,995.56
2016,03,05,01,11,995.56
2016,03,05,01,12,995.53
2016,03,05,01,13,995.50
2016,03,05,01,14,995.49
2016,03,05,01,15,995.43
2016,03,05,01,16,995.45
2016,03,05,01,17,995.37
2016,03,05,01,18,995.46
2016,03,05,01,19,995.43
2016,03,05,01,20,995.46
2016,03,05,01,21,995.46
2016,03,05,01,22,995.35
2016,03,05,01,23,995.26
2016,03,05,01,24,995.26
2016,03,05,01,25,995.28
2016,03,05,01,26,995.19
2016,03,05,01,27,995.11
2016,03,05,01,28,995.05
2016,03,05,01,29,994.99
2016,03,05,01,30,994.99
2016,03,05,01,31,995.02
2016,03,05,01,32,995.02
2016,03,05,01,33,995.08
2016,03,05,01,34,994.96
2016,03,05,01,35,994.96
2016,03,05,01,36,994.99
2016,03,05,01,37,994.96
2016,03,05,01,38,994.96
2016,03,05,01,39,994.92
2016,03,05,01,40,994.96
2016,03,05,01,41,994.99
2016,03,05,01,42,994.93
2016,03,05,01,43,995.02
2016,03,05,01,44,994.99
2016,03,05,01,45,995.00
2016,03,05,01,46,995.06
2016,03,05,01,47,995.02
2016,03,05,01,48,995.02
2016,03,05,01,49,995.01
2016,03,05,01,50,994.89
2016,03,05,01,51,994.92
2016,03,05,01,52,994.89
2016,03,05,01,53,994.85
2016,03,05,01,54,994.82
2016,03,05,01,55,994.85
2016,03,05,01,56,994.81
2016,03,05,01,57,994.75
2016,03,05,01,58,994.75
2016,03,05,01,59,994.75
2016,03,05,02,00,994.79
2016,03,05,02,01,994.71
2016,03,05,02,02,994.62
2016,03,05,02,03,994.38
2016,03,05,02,04,994.45
2016,03,05,02,05,994.41
2016,03,05,02,06,994.41
2016,03,05,02,07,994.44
2016,03,05,02,08,994.36
2016,03,05,02,09,994.41
2016,03,05,02,10,994.44
2016,03,05,02,11,994.39
2016,03,05,02,12,994.45
2016,03,05,02,13,994.45
2016,03,05,02,14,994.49
2016,03,05,02,15,994.55
2016,03,05,02,16,994.48
2016,03,05,02,17,994.46
2016,03,05,02,18,994.52
2016,03,05,02,19,994.51
2016,03,05,02,20,994.46
2016,03,05,02,21,994.58
2016,03,05,02,22,994.51
2016,03,05,02,23,994.46
2016,03,05,02,24,994.54
2016,03,05,02,25,994.46
2016,03,05,02,26,994.55
2016,03,05,02,27,994.52
2016,03,05,02,28,994.55
2016,03,05,02,29,994.55
2016,03,05,02,30,994.54
2016,03,05,02,31,994.45
2016,03,05,02,32,994.45
2016,03,05,02,33,994.44
2016,03,05,02,34,994.38
2016,03,05,02,35,994.41
2016,03,05,02,36,994.41
2016,03,05,02,37,994.41
2016,03,05,02,38,994.35
2016,03,05,02,39,994.38
2016,03,05,02,40,994.38
2016,03,05,02,41,994.29
2016,03,05,02,42,994.38
2016,03,05,02,43,994.38
2016,03,05,02,44,994.35
2016,03,05,02,45,994.38
2016,03,05,02,46,994.36
2016,03,05,02,47,994.46
2016,03,05,02,48,994.55
2016,03,05,02,49,994.62
2016,03,05,02,50,994.58
2016,03,05,02,51,994.56
2016,03,05,02,52,994.65
2016,03,05,02,53,994.68
2016,03,05,02,54,994.65
2016,03,05,02,55,994.65
2016,03,05,02,56,994.68
2016,03,05,02,57,994.72
2016,03,05,02,58,994.72
2016,03,05,02,59,994.73
2016,03,05,03,00,994.79
2016,03,05,03,01,994.89
2016,03,05,03,02,994.86
2016,03,05,03,03,994.96
2016,03,05,03,04,994.93
2016,03,05,03,05,995.06
2016,03,05,03,06,995.07
2016,03,05,03,07,995.16
2016,03,05,03,08,995.23
2016,03,05,03,09,995.24
2016,03,05,03,10,995.36
2016,03,05,03,11,995.33
2016,03,05,03,12,995.36
2016,03,05,03,13,995.44
2016,03,05,03,14,995.50
2016,03,05,03,15,995.49
2016,03,05,03,16,995.36
2016,03,05,03,17,995.35
2016,03,05,03,18,995.25
2016,03,05,03,19,995.12
2016,03,05,03,20,995.19
2016,03,05,03,21,995.19
2016,03,05,03,22,995.23
2016,03,05,03,23,995.26
2016,03,05,03,24,995.29
2016,03,05,03,25,995.26
2016,03,05,03,26,995.27
2016,03,05,03,27,995.40
2016,03,05,03,28,995.35
2016,03,05,03,29,995.26
2016,03,05,03,30,995.29
2016,03,05,03,31,995.27
2016,03,05,03,32,995.33
2016,03,05,03,33,995.36
2016,03,05,03,34,995.40
2016,03,05,03,35,995.43
2016,03,05,03,36,995.43
2016,03,05,03,37,995.47
2016,03,05,03,38,995.56
2016,03,05,03,39,995.57
2016,03,05,03,40,995.63
2016,03,05,03,41,995.66
2016,03,05,03,42,995.60
2016,03,05,03,43,995.60
2016,03,05,03,44,995.60
2016,03,05,03,45,995.61
2016,03,05,03,46,995.67
2016,03,05,03,47,995.70
2016,03,05,03,48,995.70
2016,03,05,03,49,995.70
2016,03,05,03,50,995.67
2016,03,05,03,51,995.70
2016,03,05,03,52,995.73
2016,03,05,03,53,995.77
2016,03,05,03,54,995.73
2016,03,05,03,55,995.73
2016,03,05,03,56,995.73
2016,03,05,03,57,995.73
2016,03,05,03,58,995.80
2016,03,05,03,59,995.84
2016,03,05,04,00,995.84
2016,03,05,04,01,995.84
2016,03,05,04,02,995.84
2016,03,05,04,03,995.84
2016,03,05,04,04,995.85
2016,03,05,04,05,995.90
2016,03,05,04,06,995.94
2016,03,05,04,07,995.97
2016,03,05,04,08,996.04
2016,03,05,04,09,995.97
2016,03,05,04,10,996.01
2016,03,05,04,11,996.01
2016,03,05,04,12,996.04
2016,03,05,04,13,996.11
2016,03,05,04,14,996.14
2016,03,05,04,15,996.16
2016,03,05,04,16,996.08
2016,03,05,04,17,996.17
2016,03,05,04,18,996.17
2016,03,05,04,19,996.21
2016,03,05,04,20,996.21
2016,03,05,04,21,996.21
2016,03,05,04,22,996.21
2016,03,05,04,23,996.22
2016,03,05,04,24,996.28
2016,03,05,04,25,996.34
2016,03,05,04,26,996.38
2016,03,05,04,27,996.41
2016,03,05,04,28,996.41
2016,03,05,04,29,996.41
2016,03,05,04,30,996.45
2016,03,05,04,31,996.45
2016,03,05,04,32,996.45
2016,03,05,04,33,996.48
2016,03,05,04,34,996.50
2016,03,05,04,35,996.45
2016,03,05,04,36,996.48
2016,03,05,04,37,996.55
2016,03,05,04,38,996.52
2016,03,05,04,39,996.61
2016,03,05,04,40,996.55
2016,03,05,04,41,996.55
2016,03,05,04,42,996.58
2016,03,05,04,43,996.58
2016,03,05,04,44,996.61
2016,03,05,04,45,996.62
2016,03,05,04,46,996.72
2016,03,05,04,47,996.75
2016,03,05,04,48,996.71
2016,03,05,04,49,996.61
2016,03,05,04,50,996.65
2016,03,05,04,51,996.73
2016,03,05,04,52,996.85
2016,03,05,04,53,996.89
2016,03,05,04,54,996.92
2016,03,05,04,55,996.99
2016,03,05,04,56,997.02
2016,03,05,04,57,996.95
2016,03,05,04,58,996.99
2016,03,05,04,59,997.02
2016,03,05,05,00,997.03
2016,03,05,05,01,997.12
2016,03,05,05,02,997.09
2016,03,05,05,03,997.09
2016,03,05,05,04,997.09
2016,03,05,05,05,997.09
2016,03,05,05,06,997.12
2016,03,05,05,07,997.09
2016,03,05,05,08,997.16
2016,03,05,05,09,997.16
2016,03,05,05,10,997.16
2016,03,05,05,11,997.16
2016,03,05,05,12,997.17
2016,03,05,05,13,997.29
2016,03,05,05,14,997.26
2016,03,05,05,15,997.33
2016,03,05,05,16,997.33
2016,03,05,05,17,997.32
2016,03,05,05,18,997.19
2016,03,05,05,19,997.19
2016,03,05,05,20,997.26
2016,03,05,05,21,997.29
2016,03,05,05,22,997.33
2016,03,05,05,23,997.29
2016,03,05,05,24,997.29
2016,03,05,05,25,997.33
2016,03,05,05,26,997.33
2016,03,05,05,27,997.39
2016,03,05,05,28,997.36
2016,03,05,05,29,997.36
2016,03,05,05,30,997.33
2016,03,05,05,31,997.29
2016,03,05,05,32,997.29
2016,03,05,05,33,997.34
2016,03,05,05,34,997.46
2016,03,05,05,35,997.42
2016,03,05,05,36,997.36
2016,03,05,05,37,997.39
2016,03,05,05,38,997.39
2016,03,05,05,39,997.39
2016,03,05,05,40,997.39
2016,03,05,05,41,997.46
2016,03,05,05,42,997.46
2016,03,05,05,43,997.46
2016,03,05,05,44,997.43
2016,03,05,05,45,997.46
2016,03,05,05,46,997.50
2016,03,05,05,47,997.51
2016,03,05,05,48,997.60
2016,03,05,05,49,997.63
2016,03,05,05,50,997.56
2016,03,05,05,51,997.53
2016,03,05,05,52,997.63
2016,03,05,05,53,997.66
2016,03,05,05,54,997.63
2016,03,05,05,55,997.63
2016,03,05,05,56,997.66
2016,03,05,05,57,997.66
2016,03,05,05,58,997.66
2016,03,05,05,59,997.73
2016,03,05,06,00,997.77
2016,03,05,06,01,997.80
2016,03,05,06,02,997.83
2016,03,05,06,03,997.87
2016,03,05,06,04,997.90
2016,03,05,06,05,997.94
2016,03,05,06,06,997.97
2016,03,05,06,07,997.97
2016,03,05,06,08,998.00
2016,03,05,06,09,998.04
2016,03,05,06,10,998.04
2016,03,05,06,11,998.07
2016,03,05,06,12,998.10
2016,03,05,06,13,998.14
2016,03,05,06,14,998.17
2016,03,05,06,15,998.14
2016,03,05,06,16,998.14
2016,03,05,06,17,998.10
2016,03,05,06,18,998.14
2016,03,05,06,19,998.14
2016,03,05,06,20,998.14
2016,03,05,06,21,998.21
2016,03,05,06,22,998.27
2016,03,05,06,23,998.24
2016,03,05,06,24,998.27
2016,03,05,06,25,998.34
2016,03,05,06,26,998.34
2016,03,05,06,27,998.31
2016,03,05,06,28,998.34
2016,03,05,06,29,998.31
2016,03,05,06,30,998.34
2016,03,05,06,31,998.34
2016,03,05,06,32,998.34
2016,03,05,06,33,998.41
2016,03,05,06,34,998.44
2016,03,05,06,35,998.48
2016,03,05,06,36,998.51
2016,03,05,06,37,998.48
2016,03,05,06,38,998.44
2016,03,05,06,39,998.44
2016,03,05,06,40,998.44
2016,03,05,06,41,998.44
2016,03,05,06,42,998.44
2016,03,05,06,43,998.48
2016,03,05,06,44,998.44
2016,03,05,06,45,998.44
2016,03,05,06,46,998.44
2016,03,05,06,47,998.48
2016,03,05,06,48,998.51
2016,03,05,06,49,998.58
2016,03,05,06,50,998.65
2016,03,05,06,51,998.71
2016,03,05,06,52,998.78
2016,03,05,06,53,998.75
2016,03,05,06,54,998.75
2016,03,05,06,55,998.68
2016,03,05,06,56,998.68
2016,03,05,06,57,998.71
2016,03,05,06,58,998.75
2016,03,05,06,59,998.82
2016,03,05,07,00,998.88
2016,03,05,07,01,998.95
2016,03,05,07,02,999.02
2016,03,05,07,03,999.09
2016,03,05,07,04,999.12
2016,03,05,07,05,999.12
2016,03,05,07,06,999.19
2016,03,05,07,07,999.19
2016,03,05,07,08,999.22
2016,03,05,07,09,999.19
2016,03,05,07,10,999.12
2016,03,05,07,11,999.12
2016,03,05,07,12,999.12
2016,03,05,07,13,999.12
2016,03,05,07,14,999.09
2016,03,05,07,15,999.12
2016,03,05,07,16,999.15
2016,03,05,07,17,999.22
2016,03,05,07,18,999.26
2016,03,05,07,19,999.26
2016,03,05,07,20,999.26
2016,03,05,07,21,999.26
2016,03,05,07,22,999.26
2016,03,05,07,23,999.26
2016,03,05,07,24,999.29
2016,03,05,07,25,999.26
2016,03,05,07,26,999.22
2016,03,05,07,27,999.16
2016,03,05,07,28,999.27
2016,03,05,07,29,999.36
2016,03,05,07,30,999.36
2016,03,05,07,31,999.43
2016,03,05,07,32,999.39
2016,03,05,07,33,999.43
2016,03,05,07,34,999.49
2016,03,05,07,35,999.53
2016,03,05,07,36,999.56
2016,03,05,07,37,999.55
2016,03,05,07,38,999.46
2016,03,05,07,39,999.43
2016,03,05,07,40,999.47
2016,03,05,07,41,999.56
2016,03,05,07,42,999.59
2016,03,05,07,43,999.66
2016,03,05,07,44,999.73
2016,03,05,07,45,999.80
2016,03,05,07,46,999.83
2016,03,05,07,47,999.76
2016,03,05,07,48,999.76
2016,03,05,07,49,999.73
2016,03,05,07,50,999.73
2016,03,05,07,51,999.80
2016,03,05,07,52,999.84
2016,03,05,07,53,999.93
2016,03,05,07,54,999.97
2016,03,05,07,55,999.97
2016,03,05,07,56,999.97
2016,03,05,07,57,999.97
2016,03,05,07,58,1000.03
2016,03,05,07,59,1000.03
2016,03,05,08,00,1000.03
2016,03,05,08,01,1000.07
2016,03,05,08,02,1000.14
2016,03,05,08,03,1000.17
2016,03,05,08,04,1000.17
2016,03,05,08,05,1000.14
2016,03,05,08,06,1000.10
2016,03,05,08,07,1000.10
2016,03,05,08,08,1000.14
2016,03,05,08,09,1000.17
2016,03,05,08,10,1000.17
2016,03,05,08,11,1000.24
2016,03,05,08,12,1000.24
2016,03,05,08,13,1000.20
2016,03,05,08,14,1000.20
2016,03,05,08,15,1000.17
2016,03,05,08,16,1000.17
2016,03,05,08,17,1000.17
2016,03,05,08,18,1000.24
2016,03,05,08,19,1000.20
2016,03,05,08,20,1000.20
2016,03,05,08,21,1000.14
2016,03,05,08,22,1000.14
2016,03,05,08,23,1000.10
2016,03,05,08,24,1000.17
2016,03,05,08,25,1000.20
2016,03,05,08,26,1000.27
2016,03,05,08,27,1000.34
2016,03,05,08,28,1000.41
2016,03,05,08,29,1000.44
2016,03,05,08,30,1000.48
2016,03,05,08,31,1000.44
2016,03,05,08,32,1000.51
2016,03,05,08,33,1000.54
2016,03,05,08,34,1000.58
2016,03,05,08,35,1000.54
2016,03,05,08,36,1000.58
2016,03,05,08,37,1000.64
2016,03,05,08,38,1000.61
2016,03,05,08,39,1000.58
2016,03,05,08,40,1000.54
2016,03,05,08,41,1000.58
2016,03,05,08,42,1000.58
2016,03,05,08,43,1000.58
2016,03,05,08,44,1000.54
2016,03,05,08,45,1000.58
2016,03,05,08,46,1000.58
2016,03,05,08,47,1000.61
2016,03,05,08,48,1000.58
2016,03,05,08,49,1000.64
2016,03,05,08,50,1000.64
2016,03,05,08,51,1000.68
2016,03,05,08,52,1000.68
2016,03,05,08,53,1000.71
2016,03,05,08,54,1000.75
2016,03,05,08,55,1000.68
2016,03,05,08,56,1000.71
2016,03,05,08,57,1000.75
2016,03,05,08,58,1000.71
2016,03,05,08,59,1000.71
2016,03,05,09,00,1000.71
2016,03,05,09,01,1000.75
2016,03,05,09,02,1000.75
2016,03,05,09,03,1000.78
2016,03,05,09,04,1000.75
2016,03,05,09,05,1000.78
2016,03,05,09,06,1000.81
2016,03,05,09,07,1000.78
2016,03,05,09,08,1000.85
2016,03,05,09,09,1000.85
2016,03,05,09,10,1000.88
2016,03,05,09,11,1000.88
2016,03,05,09,12,1000.81
2016,03,05,09,13,1000.81
2016,03,05,09,14,1000.75
2016,03,05,09,15,1000.75
2016,03,05,09,16,1000.71
2016,03,05,09,17,1000.75
2016,03,05,09,18,1000.75
2016,03,05,09,19,1000.81
2016,03,05,09,20,1000.81
2016,03,05,09,21,1000.81
2016,03,05,09,22,1000.78
2016,03,05,09,23,1000.75
2016,03,05,09,24,1000.78
2016,03,05,09,25,1000.81
2016,03,05,09,26,1000.78
2016,03,05,09,27,1000.75
2016,03,05,09,28,1000.75
2016,03,05,09,29,1000.68
2016,03,05,09,30,1000.75
2016,03,05,09,31,1000.78
2016,03,05,09,32,1000.78
2016,03,05,09,33,1000.71
2016,03,05,09,34,1000.71
2016,03,05,09,35,1000.71
2016,03,05,09,36,1000.75
2016,03,05,09,37,1000.71
2016,03,05,09,38,1000.71
2016,03,05,09,39,1000.68
2016,03,05,09,40,1000.68
2016,03,05,09,41,1000.68
2016,03,05,09,42,1000.64
2016,03,05,09,43,1000.71
2016,03,05,09,44,1000.71
2016,03,05,09,45,1000.71
2016,03,05,09,46,1000.71
2016,03,05,09,47,1000.71
2016,03,05,09,48,1000.68
2016,03,05,09,49,1000.64
2016,03,05,09,50,1000.64
2016,03,05,09,51,1000.64
2016,03,05,09,52,1000.64
2016,03,05,09,53,1000.58
2016,03,05,09,54,1000.58
2016,03,05,09,55,1000.61
2016,03,05,09,56,1000.58
2016,03,05,09,57,1000.54
2016,03,05,09,58,1000.51
2016,03,05,09,59,1000.51
2016,03,05,10,00,1000.51
2016,03,05,10,01,1000.54
2016,03,05,10,02,1000.51
2016,03,05,10,03,1000.51
2016,03,05,10,04,1000.51
2016,03,05,10,05,1000.58
2016,03,05,10,06,1000.54
2016,03,05,10,07,1000.51
2016,03,05,10,08,1000.51
2016,03,05,10,09,1000.54
2016,03,05,10,10,1000.54
2016,03,05,10,11,1000.54
2016,03,05,10,12,1000.54
2016,03,05,10,13,1000.58
2016,03,05,10,14,1000.51
2016,03,05,10,15,1000.54
2016,03,05,10,16,1000.54
2016,03,05,10,17,1000.51
2016,03,05,10,18,1000.51
2016,03,05,10,19,1000.58
2016,03,05,10,20,1000.51
2016,03,05,10,21,1000.51
2016,03,05,10,22,1000.51
2016,03,05,10,23,1000.54
2016,03,05,10,24,1000.51
2016,03,05,10,25,1000.51
2016,03,05,10,26,1000.51
2016,03,05,10,27,1000.54
2016,03,05,10,28,1000.48
2016,03,05,10,29,1000.51
2016,03,05,10,30,1000.48
2016,03,05,10,31,1000.48
2016,03,05,10,32,1000.48
2016,03,05,10,33,1000.41
2016,03,05,10,34,1000.37
2016,03,05,10,35,1000.34
2016,03,05,10,36,1000.34
2016,03,05,10,37,1000.41
2016,03,05,10,38,1000.37
2016,03,05,10,39,1000.37
2016,03,05,10,40,1000.34
2016,03,05,10,41,1000.37
2016,03,05,10,42,1000.37
2016,03,05,10,43,1000.34
2016,03,05,10,44,1000.34
2016,03,05,10,45,1000.31
2016,03,05,10,46,1000.27
2016,03,05,10,47,1000.24
2016,03,05,10,48,1000.27
2016,03,05,10,49,1000.24
2016,03,05,10,50,1000.20
2016,03,05,10,51,1000.17
2016,03,05,10,52,1000.20
2016,03,05,10,53,1000.24
2016,03,05,10,54,1000.24
2016,03,05,10,55,1000.27
2016,03,05,10,56,1000.27
2016,03,05,10,57,1000.24
2016,03,05,10,58,1000.24
2016,03,05,10,59,1000.24
2016,03,05,11,00,1000.27
2016,03,05,11,01,1000.31
2016,03,05,11,02,1000.34
2016,03,05,11,03,1000.41
2016,03,05,11,04,1000.37
2016,03,05,11,05,1000.34
2016,03,05,11,06,1000.34
2016,03,05,11,07,1000.37
2016,03,05,11,08,1000.37
2016,03,05,11,09,1000.41
2016,03,05,11,10,1000.41
2016,03,05,11,11,1000.44
2016,03,05,11,12,1000.37
2016,03,05,11,13,1000.34
2016,03,05,11,14,1000.27
2016,03,05,11,15,1000.24
2016,03,05,11,16,1000.24
2016,03,05,11,17,1000.27
2016,03,05,11,18,1000.27
2016,03,05,11,19,1000.34
2016,03,05,11,20,1000.27
2016,03,05,11,21,1000.31
2016,03,05,11,22,1000.37
2016,03,05,11,23,1000.44
2016,03,05,11,24,1000.44
2016,03,05,11,25,1000.44
2016,03,05,11,26,1000.48
2016,03,05,11,27,1000.44
2016,03,05,11,28,1000.41
2016,03,05,11,29,1000.44
2016,03,05,11,30,1000.48
2016,03,05,11,31,1000.48
2016,03,05,11,32,1000.51
2016,03,05,11,33,1000.51
2016,03,05,11,34,1000.54
2016,03,05,11,35,1000.54
2016,03,05,11,36,1000.54
2016,03,05,11,37,1000.58
2016,03,05,11,38,1000.58
2016,03,05,11,39,1000.58
2016,03,05,11,40,1000.58
2016,03,05,11,41,1000.61
2016,03,05,11,42,1000.64
2016,03,05,11,43,1000.58
2016,03,05,11,44,1000.61
2016,03,05,11,45,1000.61
2016,03,05,11,46,1000.61
2016,03,05,11,47,1000.58
2016,03,05,11,48,1000.58
2016,03,05,11,49,1000.58
2016,03,05,11,50,1000.54
2016,03,05,11,51,1000.54
2016,03,05,11,52,1000.58
2016,03,05,11,53,1000.61
2016,03,05,11,54,1000.64
2016,03,05,11,55,1000.64
2016,03,05,11,56,1000.71
2016,03,05,11,57,1000.71
2016,03,05,11,58,1000.68
2016,03,05,11,59,1000.68
2016,03,05,12,00,1000.64
2016,03,05,12,01,1000.71
2016,03,05,12,02,1000.71
2016,03,05,12,03,1000.75
2016,03,05,12,04,1000.71
2016,03,05,12,05,1000.64
2016,03,05,12,06,1000.61
2016,03,05,12,07,1000.61
2016,03,05,12,08,1000.61
2016,03,05,12,09,1000.58
2016,03,05,12,10,1000.58
2016,03,05,12,11,1000.54
2016,03,05,12,12,1000.58
2016,03,05,12,13,1000.61
2016,03,05,12,14,1000.61
2016,03,05,12,15,1000.58
2016,03,05,12,16,1000.58
2016,03,05,12,17,1000.51
2016,03,05,12,18,1000.41
2016,03,05,12,19,1000.48
2016,03,05,12,20,1000.51
2016,03,05,12,21,1000.58
2016,03,05,12,22,1000.61
2016,03,05,12,23,1000.68
2016,03,05,12,24,1000.75
2016,03,05,12,25,1000.81
2016,03,05,12,26,1000.85
2016,03,05,12,27,1000.88
2016,03,05,12,28,1000.92
2016,03,05,12,29,1001.02
2016,03,05,12,30,1001.02
2016,03,05,12,31,1001.05
2016,03,05,12,32,1001.08
2016,03,05,12,33,1001.08
2016,03,05,12,34,1001.05
2016,03,05,12,35,1001.02
2016,03,05,12,36,1000.95
2016,03,05,12,37,1000.92
2016,03,05,12,38,1000.92
2016,03,05,12,39,1000.88
2016,03,05,12,40,1000.81
2016,03,05,12,41,1000.75
2016,03,05,12,42,1000.71
2016,03,05,12,43,1000.71
2016,03,05,12,44,1000.68
2016,03,05,12,45,1000.68
2016,03,05,12,46,1000.68
2016,03,05,12,47,1000.71
2016,03,05,12,48,1000.68
2016,03,05,12,49,1000.61
2016,03,05,12,50,1000.61
2016,03,05,12,51,1000.58
2016,03,05,12,52,1000.54
2016,03,05,12,53,1000.58
2016,03,05,12,54,1000.41
2016,03,05,12,55,1000.41
2016,03,05,12,56,1000.31
2016,03,05,12,57,1000.27
2016,03,05,12,58,1000.27
2016,03,05,12,59,1000.24
2016,03,05,13,00,1000.24
2016,03,05,13,01,1000.20
2016,03,05,13,02,1000.24
2016,03,05,13,03,1000.20
2016,03,05,13,04,1000.24
2016,03,05,13,05,1000.24
2016,03,05,13,06,1000.24
2016,03,05,13,07,1000.27
2016,03,05,13,08,1000.24
2016,03,05,13,09,1000.20
2016,03,05,13,10,1000.14
2016,03,05,13,11,1000.10
2016,03,05,13,12,1000.07
2016,03,05,13,13,1000.00
2016,03,05,13,14,999.97
2016,03,05,13,15,999.97
2016,03,05,13,16,999.90
2016,03,05,13,17,999.83
2016,03,05,13,18,999.87
2016,03,05,13,19,999.80
2016,03,05,13,20,999.80
2016,03,05,13,21,999.83
2016,03,05,13,22,999.87
2016,03,05,13,23,999.83
2016,03,05,13,24,999.87
2016,03,05,13,25,999.87
2016,03,05,13,26,999.90
2016,03,05,13,27,999.90
2016,03,05,13,28,999.93
2016,03,05,13,29,999.90
2016,03,05,13,30,999.90
2016,03,05,13,31,999.90
2016,03,05,13,32,999.90
2016,03,05,13,33,999.90
2016,03,05,13,34,999.87
2016,03,05,13,35,999.97
2016,03,05,13,36,999.93
2016,03,05,13,37,999.87
2016,03,05,13,38,999.87
2016,03,05,13,39,999.83
2016,03,05,13,40,999.80
2016,03,05,13,41,999.76
2016,03,05,13,42,999.70
2016,03,05,13,43,999.66
2016,03,05,13,44,999.63
2016,03,05,13,45,999.59
2016,03,05,13,46,999.59
2016,03,05,13,47,999.55
2016,03,05,13,48,999.43
2016,03,05,13,49,999.53
2016,03,05,13,50,999.53
2016,03,05,13,51,999.46
2016,03,05,13,52,999.46
2016,03,05,13,53,999.49
2016,03,05,13,54,999.46
2016,03,05,13,55,999.46
2016,03,05,13,56,999.43
2016,03,05,13,57,999.39
2016,03,05,13,58,999.36
2016,03,05,13,59,999.32
2016,03,05,14,00,999.36
2016,03,05,14,01,999.32
2016,03,05,14,02,999.29
2016,03,05,14,03,999.22
2016,03,05,14,04,999.19
2016,03,05,14,05,999.09
2016,03,05,14,06,999.02
2016,03,05,14,07,998.99
2016,03,05,14,08,998.95
2016,03,05,14,09,998.92
2016,03,05,14,10,998.88
2016,03,05,14,11,998.92
2016,03,05,14,12,998.92
2016,03,05,14,13,998.78
2016,03,05,14,14,998.75
2016,03,05,14,15,998.75
2016,03,05,14,16,998.75
2016,03,05,14,17,998.65
2016,03,05,14,18,998.54
2016,03,05,14,19,998.58
2016,03,05,14,20,998.51
2016,03,05,14,21,998.51
2016,03,05,14,22,998.51
2016,03,05,14,23,998.41
2016,03,05,14,24,998.38
2016,03,05,14,25,998.41
2016,03,05,14,26,998.34
2016,03,05,14,27,998.34
2016,03,05,14,28,998.31
2016,03,05,14,29,998.38
2016,03,05,14,30,998.31
2016,03,05,14,31,998.31
2016,03,05,14,32,998.24
2016,03,05,14,33,998.21
2016,03,05,14,34,998.17
2016,03,05,14,35,998.17
2016,03,05,14,36,998.17
2016,03,05,14,37,998.07
2016,03,05,14,38,998.07
2016,03,05,14,39,998.00
2016,03,05,14,40,998.00
2016,03,05,14,41,997.94
2016,03,05,14,42,997.87
2016,03,05,14,43,997.77
2016,03,05,14,44,997.73
2016,03,05,14,45,997.70
2016,03,05,14,46,997.70
2016,03,05,14,47,997.63
2016,03,05,14,48,997.66
2016,03,05,14,49,997.63
2016,03,05,14,50,997.56
2016,03,05,14,51,997.56
2016,03,05,14,52,997.60
2016,03,05,14,53,997.56
2016,03,05,14,54,997.53
2016,03,05,14,55,997.50
2016,03,05,14,56,997.50
2016,03,05,14,57,997.46
2016,03,05,14,58,997.39
2016,03,05,14,59,997.39
2016,03,05,15,00,997.33
2016,03,05,15,01,997.29
2016,03,05,15,02,997.22
2016,03,05,15,03,997.25
2016,03,05,15,04,997.09
2016,03,05,15,05,997.09
2016,03,05,15,06,997.02
2016,03,05,15,07,997.02
2016,03,05,15,08,996.95
2016,03,05,15,09,996.92
2016,03,05,15,10,996.95
2016,03,05,15,11,996.99
2016,03,05,15,12,996.95
2016,03,05,15,13,996.92
2016,03,05,15,14,996.92
2016,03,05,15,15,996.89
2016,03,05,15,16,996.95
2016,03,05,15,17,997.02
2016,03,05,15,18,996.99
2016,03,05,15,19,996.99
2016,03,05,15,20,996.95
2016,03,05,15,21,996.92
2016,03,05,15,22,996.85
2016,03,05,15,23,996.85
2016,03,05,15,24,996.82
2016,03,05,15,25,996.75
2016,03,05,15,26,996.78
2016,03,05,15,27,996.72
2016,03,05,15,28,996.78
2016,03,05,15,29,996.72
2016,03,05,15,30,996.61
2016,03,05,15,31,996.58
2016,03,05,15,32,996.51
2016,03,05,15,33,996.41
2016,03,05,15,34,996.34
2016,03,05,15,35,996.28
2016,03,05,15,36,996.28
2016,03,05,15,37,996.24
2016,03,05,15,38,996.14
2016,03,05,15,39,996.21
2016,03,05,15,40,996.11
2016,03,05,15,41,996.04
2016,03,05,15,42,996.04
2016,03,05,15,43,996.01
2016,03,05,15,44,996.01
2016,03,05,15,45,996.01
2016,03,05,15,46,995.94
2016,03,05,15,47,995.90
2016,03,05,15,48,995.97
2016,03,05,15,49,995.94
2016,03,05,15,50,995.94
2016,03,05,15,51,995.97
2016,03,05,15,52,995.90
2016,03,05,15,53,995.87
2016,03,05,15,54,995.77
2016,03,05,15,55,995.70
2016,03,05,15,56,995.70
2016,03,05,15,57,995.67
2016,03,05,15,58,995.73
2016,03,05,15,59,995.70
2016,03,05,16,00,995.73
2016,03,05,16,01,995.70
2016,03,05,16,02,995.70
2016,03,05,16,03,995.67
2016,03,05,16,04,995.63
2016,03,05,16,05,995.63
2016,03,05,16,06,995.56
2016,03,05,16,07,995.53
2016,03,05,16,08,995.50
2016,03,05,16,09,995.46
2016,03,05,16,10,995.46
2016,03,05,16,11,995.43
2016,03,05,16,12,995.33
2016,03,05,16,13,995.26
2016,03,05,16,14,995.23
2016,03,05,16,15,995.19
2016,03,05,16,16,995.12
2016,03,05,16,17,995.19
2016,03,05,16,18,995.12
2016,03,05,16,19,995.09
2016,03,05,16,20,995.02
2016,03,05,16,21,995.06
2016,03,05,16,22,994.99